Time,TemperatureF,DewpointF,PressureIn,WindDirection,WindDirectionDegrees,WindSpeedMPH,WindSpeedGustMPH,Humidity,HourlyPrecipIn,Conditions,Clouds,dailyrainin,SoftwareType,DateUTC
2013-07-16 00:32:00,69.0,62.0,30.30,NE,45,0.0,0.0,78,0.00,,,0.00,,2013-07-16 04:32:00,
2013-07-16 00:43:00,69.0,62.0,30.30,NE,45,0.0,0.0,78,0.00,,,0.00,,2013-07-16 04:43:00,
2013-07-16 00:53:00,68.0,61.0,30.30,NE,45,0.0,0.0,79,0.00,,,0.00,,2013-07-16 04:53:00,
2013-07-16 01:01:00,68.0,61.0,30.30,NE,45,0.0,0.0,79,0.00,,,0.00,,2013-07-16 05:01:00,
2013-07-16 01:52:00,68.0,61.0,30.30,NNE,22,0.0,0.0,79,0.00,,,0.00,,2013-07-16 05:52:00,
2013-07-16 02:01:00,68.0,61.0,30.30,NNE,22,0.0,0.0,79,0.00,,,0.00,,2013-07-16 06:01:00,
2013-07-16 02:11:00,68.0,61.0,30.30,ENE,67,0.0,0.0,79,0.00,,,0.00,,2013-07-16 06:11:00,
2013-07-16 02:43:00,68.0,61.0,30.30,NE,45,0.0,0.0,79,0.00,,,0.00,,2013-07-16 06:43:00,
2013-07-16 02:52:00,68.0,61.0,30.30,NE,45,0.0,0.0,79,0.00,,,0.00,,2013-07-16 06:52:00,
2013-07-16 03:32:00,68.0,61.0,30.30,NE,45,0.0,0.0,79,0.00,,,0.00,,2013-07-16 07:32:00,
2013-07-16 03:43:00,68.0,61.0,30.30,ENE,67,0.0,0.0,79,0.00,,,0.00,,2013-07-16 07:43:00,
2013-07-16 04:01:00,68.0,61.0,30.30,ENE,67,0.0,0.0,79,0.00,,,0.00,,2013-07-16 08:01:00,
2013-07-16 04:22:00,68.0,61.0,30.30,ENE,67,0.0,0.0,79,0.00,,,0.00,,2013-07-16 08:22:00,
2013-07-16 04:32:00,68.0,61.0,30.30,ENE,67,0.0,0.0,79,0.00,,,0.00,,2013-07-16 08:32:00,
2013-07-16 04:43:00,68.0,61.0,30.30,ENE,67,0.0,0.0,79,0.00,,,0.00,,2013-07-16 08:43:00,
2013-07-16 04:52:00,68.0,61.0,30.30,ENE,67,0.0,0.0,79,0.00,,,0.00,,2013-07-16 08:52:00,
2013-07-16 05:01:00,68.0,61.0,30.30,ENE,67,0.0,0.0,79,0.00,,,0.00,,2013-07-16 09:01:00,
2013-07-16 05:32:00,68.0,62.0,30.30,ENE,67,0.0,0.0,80,0.00,,,0.00,,2013-07-16 09:32:00,
2013-07-16 05:42:00,68.0,62.0,30.30,ENE,67,0.0,0.0,80,0.00,,,0.00,,2013-07-16 09:42:00,
2013-07-16 05:52:00,68.0,62.0,30.30,ENE,67,0.0,0.0,80,0.00,,,0.00,,2013-07-16 09:52:00,
2013-07-16 06:11:00,67.0,61.0,30.30,ENE,67,0.0,0.0,80,0.00,,,0.00,,2013-07-16 10:11:00,
2013-07-16 06:43:00,68.0,62.0,30.31,ENE,67,0.0,0.0,81,0.00,,,0.00,,2013-07-16 10:43:00,
2013-07-16 06:52:00,68.0,62.0,30.32,ENE,67,0.0,0.0,81,0.00,,,0.00,,2013-07-16 10:52:00,
2013-07-16 07:32:00,69.0,63.0,30.32,ENE,67,0.0,0.0,81,0.00,,,0.00,,2013-07-16 11:32:00,
2013-07-16 07:42:00,70.0,64.0,30.32,ENE,67,0.0,0.0,81,0.00,,,0.00,,2013-07-16 11:42:00,
2013-07-16 07:53:00,70.0,64.0,30.32,ENE,67,0.0,0.0,81,0.00,,,0.00,,2013-07-16 11:53:00,
2013-07-16 08:32:00,73.0,66.0,30.33,NE,45,0.0,0.0,79,0.00,,,0.00,,2013-07-16 12:32:00,
2013-07-16 08:53:00,74.0,66.0,30.33,NE,45,0.0,0.0,77,0.00,,,0.00,,2013-07-16 12:53:00,
2013-07-16 09:01:00,74.0,66.0,30.33,NE,45,0.0,0.0,77,0.00,,,0.00,,2013-07-16 13:01:00,
2013-07-16 09:42:00,79.0,69.0,30.33,ENE,67,0.0,0.0,71,0.00,,,0.00,,2013-07-16 13:42:00,
2013-07-16 09:52:00,80.0,70.0,30.33,NE,45,0.0,0.0,71,0.00,,,0.00,,2013-07-16 13:52:00,
2013-07-16 11:32:00,85.0,70.0,30.33,SE,135,0.0,0.0,62,0.00,,,0.00,,2013-07-16 15:32:00,
2013-07-16 11:43:00,86.0,71.0,30.33,West,270,0.0,0.0,61,0.00,,,0.00,,2013-07-16 15:43:00,
2013-07-16 11:53:00,86.0,70.0,30.33,West,270,0.0,0.0,60,0.00,,,0.00,,2013-07-16 15:53:00,
2013-07-16 12:43:00,88.0,71.0,30.32,North,0,0.0,0.0,58,0.00,,,0.00,,2013-07-16 16:43:00,
2013-07-16 13:02:00,88.0,70.0,30.32,North,0,0.0,0.0,56,0.00,,,0.00,,2013-07-16 17:02:00,
2013-07-16 13:12:00,89.0,71.0,30.32,SSW,202,0.0,0.0,56,0.00,,,0.00,,2013-07-16 17:12:00,
2013-07-16 13:53:00,90.0,71.0,30.31,NNW,337,0.0,0.0,54,0.00,,,0.00,,2013-07-16 17:53:00,
2013-07-16 14:01:00,90.0,71.0,30.32,NNE,22,0.0,0.0,54,0.00,,,0.00,,2013-07-16 18:01:00,
2013-07-16 14:43:00,90.0,69.0,30.30,NNW,337,0.0,0.0,51,0.00,,,0.00,,2013-07-16 18:43:00,
2013-07-16 14:52:00,89.0,69.0,30.30,NNE,22,0.0,0.0,52,0.00,,,0.00,,2013-07-16 18:52:00,
2013-07-16 16:03:00,88.0,68.0,30.29,NNE,22,0.0,0.0,52,0.00,,,0.00,,2013-07-16 20:03:00,
2013-07-16 16:32:00,87.0,68.0,30.28,NNE,22,0.0,0.0,53,0.00,,,0.00,,2013-07-16 20:32:00,
2013-07-16 16:43:00,87.0,68.0,30.28,NNE,22,0.0,0.0,54,0.00,,,0.00,,2013-07-16 20:43:00,
2013-07-16 17:11:00,87.0,68.0,30.28,North,0,0.0,0.0,54,0.00,,,0.00,,2013-07-16 21:11:00,
2013-07-16 17:52:00,85.0,67.0,30.28,North,0,0.0,0.0,55,0.00,,,0.00,,2013-07-16 21:52:00,
2013-07-16 18:33:00,84.0,67.0,30.27,NNE,22,0.0,0.0,57,0.00,,,0.00,,2013-07-16 22:33:00,
2013-07-16 18:43:00,84.0,67.0,30.27,NNE,22,0.0,0.0,57,0.00,,,0.00,,2013-07-16 22:43:00,
2013-07-16 18:52:00,84.0,67.0,30.27,NNE,22,0.0,0.0,57,0.00,,,0.00,,2013-07-16 22:52:00,
2013-07-16 19:02:00,83.0,66.0,30.27,NW,315,0.0,0.0,57,0.00,,,0.00,,2013-07-16 23:02:00,
2013-07-16 19:11:00,83.0,67.0,30.27,NW,315,0.0,0.0,58,0.00,,,0.00,,2013-07-16 23:11:00,
2013-07-16 19:32:00,82.0,67.0,30.27,NNW,337,0.0,0.0,60,0.00,,,0.00,,2013-07-16 23:32:00,
2013-07-16 19:43:00,81.0,66.0,30.27,NNW,337,0.0,0.0,61,0.00,,,0.00,,2013-07-16 23:43:00,
2013-07-16 19:52:00,81.0,67.0,30.27,NNW,337,0.0,0.0,62,0.00,,,0.00,,2013-07-16 23:52:00,
2013-07-16 20:01:00,81.0,67.0,30.27,NNW,337,0.0,0.0,63,0.00,,,0.00,,2013-07-17 00:01:00,
2013-07-16 20:33:00,78.0,67.0,30.27,NNW,337,0.0,0.0,69,0.00,,,0.00,,2013-07-17 00:33:00,
2013-07-16 20:42:00,77.0,67.0,30.27,NNW,337,0.0,0.0,71,0.00,,,0.00,,2013-07-17 00:42:00,
2013-07-16 20:52:00,76.0,66.0,30.27,NNW,337,0.0,0.0,71,0.00,,,0.00,,2013-07-17 00:52:00,
2013-07-16 21:32:00,73.0,64.0,30.27,NNW,337,0.0,0.0,74,0.00,,,0.00,,2013-07-17 01:32:00,
2013-07-16 21:43:00,73.0,65.0,30.29,NNW,337,0.0,0.0,75,0.00,,,0.00,,2013-07-17 01:43:00,
2013-07-16 21:53:00,73.0,65.0,30.29,NNW,337,0.0,0.0,76,0.00,,,0.00,,2013-07-17 01:53:00,
2013-07-16 22:01:00,72.0,64.0,30.29,NNW,337,0.0,0.0,76,0.00,,,0.00,,2013-07-17 02:01:00,
2013-07-16 22:32:00,72.0,65.0,30.29,NE,45,0.0,0.0,78,0.00,,,0.00,,2013-07-17 02:32:00,
2013-07-16 22:53:00,71.0,64.0,30.29,NE,45,0.0,0.0,79,0.00,,,0.00,,2013-07-17 02:53:00,
2013-07-16 23:01:00,71.0,64.0,30.29,NE,45,0.0,0.0,79,0.00,,,0.00,,2013-07-17 03:01:00,
2013-07-16 23:43:00,70.0,64.0,30.30,NE,45,0.0,0.0,80,0.00,,,0.00,,2013-07-17 03:43:00,